COSMOS 2491 DEB, 57554

Orbit data source: Space-Track

COSMOS 2491 DEB, 57554 is space debris in LEO originally from a launch on Wed, 25 Dec 2013 UTC launched from the Plesetsk Missile And Space Complex (PKMTR). Debris objects in space refer to the collection of defunct objects orbiting the Earth. Examples of debris include non-operational satellites, rocket bodies, and fragments generated from explosions, collisions, or faulty payload assembly.

Loading next visibility...
Identifier
57554, 2013-076AR
Orbit
LEO
Country
Flag of CISCIS
Related business
Manufacturer
TsNIIKhM
Mission
Spacecraft
Bus & Motor
Unknown
Mass
Unknown
Launch date (UTC)
2013-12-25 (13 years ago)
Launch vehicle
Unknown
Launch site
Plesetsk Missile And Space Complex (PKMTR)
Object type
Payload
Rocket body
Debris
Shape & HBR
Unknown shape, 0.1 m
Radar Cross Section
Small (<0.1 m²)

Expand to show TLE details & history
Last TLE update: 1 week ago

TLE from 1 week ago
0 COSMOS 2491 DEB
1 57554U 13076AR  26249.31224050  .00000604  00000-0  38950-2 0  9990
2 57554  82.4812 106.2697 0025311  29.3905 330.8596 12.50203180151692
Epoch: 2026-09-06T07:29Z
TLE epoch observation values (Epoch: 2026-09-06T07:29:37.579Z)
Latitude
-0.00003°
Longitude
8.45395°
Altitude
1,449.028 km
Speed
7.145 km/s
True Right ascension
07h 05m 04s
True Declination
0° 00' 00"
Sunlit
Object was in daylight at epoch
Visualization orbit readout
Latitude
Unknown
Longitude
Unknown
Altitude
Unknown
Speed
Unknown
Apparent Right ascension
Unknown
Apparent Declination
Unknown
Sunlit
N/A
Visualization observer readout
Local Sidereal Time
01:49:44
Azimuth
Unknown
Elevation
Unknown
Doppler factor
Unknown
Orbital elements
Apogee altitude
1,480.828 km
Perigee altitude
1,441.145 km
Semi-major axis
7,839.124 km
Eccentricity
0.00253
Inclination
82.4812°
RAAN
106.2697°
Arg. of periapsis
29.3905°
True anomaly
330.71797°
Mean anomaly
330.8596°
Eccentric anomaly
330.78883°
Mean motion
3.1271 °/min
Orbital period
115.12 mins
BSTAR
0.003895
Loading maneuver chart data...
Computing Atmospheric mass density...
Loading historical data...
Loading historical data...
Loading historical data...
Loading historical data...
Loading historical data...
Loading historical data...
Loading historical data...

Documentation

Showing up to 5 results
|